Location: Stockholm
(59.3330°N, 18.0500°E)
Time: 12:45:55
(UTC+01:00)

Envisat - Pass Details

Date: 06 December 2022
Orbit: 763 x 765 km, 98.2° (Epoch: 29 January)

Event Time Altitude Azimuth Distance (km) Brightness Sun altitude
Rises 03:24:23 0° 19° (NNE) 3,250 6.7 -36.1°
Reaches altitude 10° 03:26:54 10° 29° (NNE) 2,318 5.9 -35.8°
Enters shadow 03:30:52 33° 77° (ENE) 1,284 4.5 -35.3°
